Weston, NE (68070)

6:34 AM CDT on July 26, 2017 (GMT -0500)
weston ne | | Change Station

Elev 1260 ft 41.19 °N, 96.74 °W | Updated 58 seconds ago

Rain
Rain
73.8 °F
Feels Like 76 °F
N
6.0
Wind Variable Wind from SSE
Gusts 6.0 mph

Today
High -- | Low -- °F
--% Chance of Precip.
Yesterday
High -- | Low -- °F
Precip. -- in
Pressure 29.96 in
Visibility 10.0 miles
Clouds Scattered Clouds 1200 ft
Scattered Clouds 2100 ft
Mostly Cloudy 9000 ft
Heat Index 76 °F
Dew Point 62 °F
Humidity 68%
Rainfall 0.38 in
Snow Depth Not available.
6:17 AM 8:49 PM
Waxing Crescent, 12% visible
METAR KAHQ 261115Z AUTO 15004KT 10SM -RA SCT012 SCT021 BKN090 24/23 A2996 RMK AO2 P0002 T02350227
Pressure 29.96 in
Visibility 10.0 miles
Clouds Scattered Clouds 1200 ft
Scattered Clouds 2100 ft
Mostly Cloudy 9000 ft
Heat Index 76 °F
Dew Point 62 °F
Humidity 68%
Rainfall 0.38 in
Snow Depth Not available.
6:17 AM 8:49 PM
Waxing Crescent, 12% visible
METAR KAHQ 261115Z AUTO 15004KT 10SM -RA SCT012 SCT021 BKN090 24/23 A2996 RMK AO2 P0002 T02350227

Get Severe Weather Alerts

Thanks for signing up!

Be on the lookout for a verification email in your inbox.

You'll start receiving the daily forecast at 6 AM.

×

10-Day Weather Forecast

Almanac

Astronomy

Jul. 26, 2017 Rise Set
Actual Time
Civil Twilight
Nautical Twilight
Astronomical Twilight
Moon
Length of Visible Light
Length of Day
Tomorrow will be .
, % of the Moon is Illuminated

Today's Extremes

State Highs State Lows

Community

WunderPhotos

Category 6

Welcome to Category 6. This is the collective home for Weather Underground's featured writeups by Dr. Jeff Masters (right), Bob Henson (left), Chris Burt, and other regular contributors.

Nearby

Air Quality

  Air Quality AQ Index Pollutant
Not available.

Snow Depth

Station Depth Elevation

Earthquake Activity

City Distance Mag. Time & Date
Minimum magnitude displayed is 2.5.

Coastal Water Temperatures

Place Temperature

Stations

Nearby Weather Stations

Station Location Temp. Windchill Dew Point Humidity Wind Precip. Elev Updated Type
                   

Watches & Warnings

There are currently no watches in effect.